CW1575 Weather Reports


Display with metric or nautical units.
time (UTC)temp
F
wind
direction
speed
MPH
gust
MPH
rain 1hr
in
rain 24hr
in
rain mn
in
humidity
%
barometer
mb
20141001181525 62 14 1.0 3.0 0.00 0.00 0.00 45 1011.9
20141001180525 62 18 2.0 3.0 0.00 0.00 0.00 45 1011.9
20141001175526 61 311 0.0 2.0 0.00 0.00 0.00 45 1012.0
20141001174525 61 213 1.0 2.0 0.00 0.00 0.00 42 1012.2
20141001173525 60 59 1.0 3.0 0.00 0.00 0.00 45 1012.2
20141001172525 60 119 2.0 5.0 0.00 0.00 0.00 44 1012.2
20141001171526 60 23 1.0 3.0 0.00 0.00 0.00 47 1012.4
20141001170525 59 344 1.0 2.0 0.00 0.00 0.00 49 1012.5
20141001165525 58 136 1.0 2.0 0.00 0.00 0.00 52 1012.9
20141001164525 58 139 1.0 2.0 0.00 0.00 0.00 49 1012.8
20141001163525 57 216 0.0 3.0 0.00 0.00 0.00 53 1012.9
20141001162525 56 199 0.0 3.0 0.00 0.00 0.00 57 1013.1
20141001161525 55 213 1.0 2.0 0.00 0.00 0.00 61 1013.1
20141001160525 54 218 2.0 3.0 0.00 0.00 0.00 62 1013.2
20141001155527 52 246 2.0 3.0 0.00 0.00 0.00 67 1013.3
20141001154525 50 213 2.0 3.0 0.00 0.00 0.00 74 1013.2
20141001153525 48 204 2.0 3.0 0.00 0.00 0.00 80 1013.2
20141001152525 47 164 1.0 2.0 0.00 0.00 0.00 81 1013.3
20141001151525 46 162 0.0 1.0 0.00 0.00 0.00 82 1013.4
20141001150525 45 162 0.0 1.0 0.00 0.00 0.00 84 1013.6
20141001145526 45 162 0.0 1.0 0.00 0.00 0.00 86 1013.7
20141001144525 44 162 0.0 1.0 0.00 0.00 0.00 88 1013.7
20141001143525 44 162 0.0 1.0 0.00 0.00 0.00 88 1013.6
20141001142526 43 162 1.0 1.0 0.00 0.00 0.00 89 1013.6
20141001141526 43 162 0.0 1.0 0.00 0.00 0.00 89 1013.7
20141001140526 42 162 0.0 2.0 0.00 0.00 0.00 89 1013.5
20141001135527 42 162 0.0 1.0 0.00 0.00 0.00 89 1013.5
20141001134525 42 162 0.0 1.0 0.00 0.00 0.00 89 1013.6
20141001133527 42 162 0.0 1.0 0.00 0.00 0.00 88 1013.6
20141001132526 42 162 1.0 2.0 0.00 0.00 0.00 88 1013.4
20141001131527 41 162 1.0 2.0 0.00 0.00 0.00 87 1013.3
20141001130525 41 162 0.0 1.0 0.00 0.00 0.00 87 1013.1
20141001125526 41 162 0.0 1.0 0.00 0.00 0.00 86 1013.2
20141001124525 41 162 0.0 1.0 0.00 0.00 0.00 86 1013.1
20141001123526 42 162 0.0 2.0 0.00 0.00 0.00 85 1013.1
20141001122526 42 162 1.0 1.0 0.00 0.00 0.00 85 1013.0
20141001121525 42 162 0.0 1.0 0.00 0.00 0.00 85 1012.8
20141001120525 42 162 0.0 2.0 0.00 0.00 0.00 84 1012.9
20141001115525 42 161 0.0 1.0 0.00 0.00 0.00 83 1012.8
20141001114525 42 161 0.0 1.0 0.00 0.00 0.00 82 1012.7
20141001113525 42 161 0.0 1.0 0.00 0.00 0.00 82 1012.5
20141001112525 42 161 0.0 2.0 0.00 0.00 0.00 81 1012.5
20141001111525 42 159 0.0 1.0 0.00 0.01 0.00 80 1012.3
20141001110526 42 159 0.0 2.0 0.00 0.01 0.00 79 1012.5
20141001105525 42 159 0.0 1.0 0.00 0.01 0.00 79 1012.5
20141001104525 43 159 0.0 1.0 0.00 0.01 0.00 79 1012.3
20141001103525 43 159 0.0 1.0 0.00 0.01 0.00 78 1012.4
20141001102524 43 159 0.0 1.0 0.00 0.01 0.00 78 1012.5
20141001101524 43 159 0.0 1.0 0.00 0.01 0.00 78 1012.5
20141001100525 43 159 1.0 2.0 0.00 0.01 0.00 78 1012.3
20141001095524 44 171 1.0 2.0 0.00 0.01 0.00 76 1012.2
20141001094525 44 171 0.0 1.0 0.00 0.01 0.00 76 1012.3
20141001093525 44 171 0.0 2.0 0.00 0.01 0.00 76 1012.3
20141001092525 44 171 1.0 2.0 0.00 0.01 0.00 76 1012.3
20141001091525 45 171 0.0 2.0 0.00 0.01 0.00 76 1012.4
20141001090526 45 213 0.0 1.0 0.00 0.01 0.00 76 1012.5
20141001085525 45 213 1.0 2.0 0.00 0.01 0.00 76 1012.6
20141001084525 45 230 1.0 2.0 0.00 0.01 0.00 75 1012.7
20141001083525 46 233 1.0 2.0 0.00 0.01 0.00 74 1012.6
20141001082525 46 275 0.0 1.0 0.00 0.01 0.00 73 1012.6
20141001081526 46 275 0.0 2.0 0.00 0.01 0.00 72 1012.6
20141001080533 46 275 0.0 2.0 0.00 0.01 0.00 70 1012.6
20141001075524 47 275 1.0 2.0 0.00 0.01 0.00 70 1012.6
20141001074525 47 321 0.0 1.0 0.00 0.01 0.00 68 1012.6
20141001073525 48 321 2.0 3.0 0.00 0.01 0.00 68 1012.7
20141001072526 48 341 1.0 2.0 0.00 0.01 0.00 67 1012.6
20141001071525 48 5 0.0 2.0 0.00 0.01 0.00 66 1012.7
20141001070525 49 5 2.0 3.0 0.00 0.01 0.00 66 1012.8
20141001065524 49 137 2.0 3.0 0.00 0.01 0.00 65 1012.6
20141001064525 50 252 1.0 3.0 0.00 0.01 0.00 64 1012.7
20141001063525 50 168 1.0 2.0 0.00 0.01 0.00 64 1012.8
20141001062525 50 281 0.0 1.0 0.00 0.01 0.00 63 1012.8
20141001061512 50 281 1.0 3.0 0.00 0.01 0.00 60 1012.5
20141001060525 50 316 3.0 6.0 0.00 0.01 0.00 59 1012.4
20141001055527 51 304 2.0 3.0 0.00 0.01 0.01 60 1012.5
20141001054528 52 277 1.0 3.0 0.00 0.01 0.01 59 1012.5
20141001053525 52 259 1.0 2.0 0.00 0.01 0.01 57 1012.6
20141001052526 53 234 0.0 2.0 0.00 0.01 0.01 55 1012.7
20141001051526 54 234 0.0 1.0 0.00 0.01 0.01 54 1012.7
20141001050526 54 234 1.0 2.0 0.00 0.01 0.01 53 1012.7
20141001045526 54 230 1.0 2.0 0.00 0.01 0.01 52 1012.7
20141001044526 54 317 2.0 5.0 0.00 0.01 0.01 52 1013.0
20141001043526 55 286 1.0 8.0 0.00 0.01 0.01 53 1013.0
20141001042526 55 277 2.0 6.0 0.00 0.01 0.01 52 1012.9
20141001041526 55 249 2.0 8.0 0.00 0.01 0.01 52 1013.0
20141001040527 55 282 2.0 5.0 0.00 0.01 0.01 53 1013.1
20141001035526 55 263 1.0 2.0 0.00 0.01 0.01 56 1013.0
20141001034526 55 242 1.0 3.0 0.00 0.01 0.01 53 1012.8
20141001033526 56 256 2.0 3.0 0.00 0.02 0.01 51 1013.0
20141001032526 56 250 1.0 2.0 0.00 0.03 0.01 53 1013.1
20141001031526 56 355 0.0 2.0 0.00 0.04 0.01 53 1012.9
20141001030526 57 16 0.0 2.0 0.00 0.05 0.01 52 1012.9
20141001025526 57 16 0.0 2.0 0.00 0.09 0.01 53 1012.9
20141001024526 57 16 0.0 2.0 0.00 0.12 0.01 51 1012.8
20141001023526 57 16 1.0 2.0 0.00 0.13 0.01 51 1012.8
20141001022526 58 16 0.0 3.0 0.00 0.13 0.01 49 1012.7
20141001021526 58 302 0.0 3.0 0.00 0.13 0.01 48 1013.0
20141001020526 58 321 0.0 2.0 0.00 0.13 0.01 47 1013.0
20141001015526 58 321 1.0 3.0 0.00 0.13 0.01 45 1012.5
20141001014526 59 355 2.0 5.0 0.00 0.13 0.01 45 1012.2
20141001013526 59 306 1.0 2.0 0.00 0.13 0.01 46 1011.9
20141001012526 59 203 1.0 3.0 0.00 0.13 0.01 44 1011.8
20141001011526 59 16 3.0 9.0 0.00 0.13 0.01 42 1011.6
20141001010526 59 308 1.0 2.0 0.00 0.13 0.01 50 1011.6
20141001005526 60 308 1.0 1.0 0.00 0.13 0.01 48 1011.4
20141001004527 60 308 1.0 2.0 0.00 0.13 0.01 48 1011.1
20141001003525 61 308 0.0 1.0 0.00 0.13 0.01 46 1010.8
20141001002526 61 308 0.0 1.0 0.00 0.13 0.01 44 1010.7
20141001001526 61 308 0.0 1.0 0.00 0.13 0.01 41 1010.7
20141001000526 62 308 0.0 3.0 0.00 0.13 0.01 40 1010.6
20140930235526 62 308 1.0 3.0 0.00 0.14 0.01 38 1010.5
20140930234525 63 275 1.0 2.0 0.00 0.14 0.01 36 1010.4
20140930233526 63 260 1.0 2.0 0.00 0.14 0.01 36 1010.4
20140930232526 63 252 1.0 3.0 0.00 0.16 0.01 37 1010.6
20140930231526 64 229 1.0 3.0 0.00 0.19 0.01 35 1010.5
20140930230526 64 254 2.0 5.0 0.00 0.23 0.01 33 1010.2
20140930225526 64 201 1.0 9.0 0.00 0.24 0.01 33 1010.3
20140930224525 64 206 3.0 7.0 0.00 0.25 0.01 34 1010.3
20140930223526 64 213 2.0 7.0 0.00 0.27 0.01 35 1010.3
20140930222526 65 278 1.0 9.0 0.00 0.28 0.01 35 1010.4
20140930221526 65 245 3.0 10.0 0.00 0.28 0.01 32 1010.4
20140930220525 65 286 3.0 10.0 0.00 0.29 0.01 33 1010.3
20140930215526 65 300 6.0 12.0 0.00 0.30 0.01 33 1010.0
20140930214525 66 246 4.0 8.0 0.00 0.30 0.01 33 1009.9
20140930213526 66 294 3.0 10.0 0.00 0.31 0.01 35 1010.2
20140930212525 67 311 1.0 6.0 0.00 0.31 0.01 37 1010.4
20140930211525 67 318 2.0 7.0 0.00 0.31 0.01 36 1010.6
20140930210527 67 323 3.0 9.0 0.00 0.31 0.01 34 1010.6
20140930205526 67 245 3.0 9.0 0.00 0.31 0.01 32 1010.6
20140930204526 68 326 3.0 10.0 0.00 0.31 0.01 33 1010.6
20140930203525 69 318 5.0 12.0 0.00 0.31 0.01 33 1010.8
20140930202526 69 311 4.0 13.0 0.00 0.32 0.01 32 1010.8
20140930201525 68 307 6.0 12.0 0.00 0.58 0.01 35 1011.2
20140930200526 66 304 7.0 15.0 0.00 0.58 0.01 35 1011.3
20140930195525 65 308 2.0 12.0 0.00 0.58 0.01 38 1011.5
20140930194526 65 227 3.0 20.0 0.00 0.58 0.01 37 1011.7
20140930193525 65 285 3.0 12.0 0.00 0.58 0.01 38 1011.8
20140930192525 65 272 7.0 14.0 0.00 0.58 0.01 36 1012.0
20140930191525 66 316 5.0 16.0 0.00 0.58 0.01 36 1012.1
20140930190525 65 271 4.0 14.0 0.00 0.58 0.01 37 1012.2
20140930185525 64 330 3.0 10.0 0.00 0.58 0.01 38 1011.9
20140930184525 63 230 5.0 12.0 0.00 0.58 0.01 40 1012.0
20140930183525 63 258 4.0 13.0 0.00 0.58 0.01 37 1012.0
20140930182525 63 272 3.0 7.0 0.00 0.58 0.01 37 1011.7